Location: La Oliva
(42.2466°N, 2.9955°E)
Time: 06:48:08
(UTC+00:00)

Cosmos 2082 - Pass Details

Date: 22 April 2021
Orbit: 834 x 855 km, 71.0° (Epoch: 07 May)

Event Time Altitude Azimuth Distance (km) Brightness Sun altitude
Exits shadow 20:37:16 25° 179° (S) 1,636 4.8 -20.2°
Maximum altitude 20:40:29 58° 109° (ESE) 967 3.7 -20.6°
Drops below altitude 10° 20:45:59 10° 32° (NNE) 2,454 6.2 -21.4°
Sets 20:48:28 0° 28° (NNE) 3,394 7.0 -21.7°
